| time (UTC) | temp C | wind direction | speed KPH | gust KPH | rain 1hr cm | rain 24hr cm | rain mn cm | humidity % | barometer mb |
| 20260502204422 | 18 | 234 | 17.7 | 22.5 | 0.00 | 0.00 | 0.00 | 33 | 1011.4 |
| 20260502203920 | 18 | 257 | 12.9 | 16.1 | 0.00 | 0.00 | 0.00 | 34 | 1011.4 |
| 20260502203417 | 18 | 239 | 6.4 | 9.7 | 0.00 | 0.00 | 0.00 | 34 | 1011.4 |
| 20260502202912 | 18 | 10 | 14.5 | 22.5 | 0.00 | 0.00 | 0.00 | 33 | 1011.4 |
| 20260502202410 | 18 | 266 | 14.5 | 16.1 | 0.00 | 0.00 | 0.00 | 35 | 1011.9 |
| 20260502201908 | 17 | 284 | 3.2 | 9.7 | 0.00 | 0.00 | 0.00 | 35 | 1012.2 |
| 20260502201403 | 17 | 239 | 12.9 | 16.1 | 0.00 | 0.00 | 0.00 | 35 | 1011.9 |
| 20260502200900 | 17 | 230 | 19.3 | 22.5 | 0.00 | 0.00 | 0.00 | 34 | 1012.2 |
| 20260502200355 | 17 | 227 | 20.9 | 27.4 | 0.00 | 0.00 | 0.00 | 34 | 1012.2 |
| 20260502195854 | 17 | 225 | 16.1 | 29.0 | 0.00 | 0.00 | 0.00 | 34 | 1012.2 |
| 20260502195350 | 17 | 193 | 9.7 | 12.9 | 0.00 | 0.00 | 0.00 | 34 | 1012.6 |
| 20260502194847 | 16 | 215 | 14.5 | 25.7 | 0.00 | 0.00 | 0.00 | 35 | 1012.6 |
| 20260502194344 | 16 | 213 | 17.7 | 22.5 | 0.00 | 0.00 | 0.00 | 36 | 1012.9 |
| 20260502193840 | 17 | 241 | 17.7 | 25.7 | 0.00 | 0.00 | 0.00 | 33 | 1012.6 |
| 20260502193337 | 16 | 252 | 8.0 | 9.7 | 0.00 | 0.00 | 0.00 | 34 | 1012.9 |
| 20260502192832 | 16 | 224 | 3.2 | 8.0 | 0.00 | 0.00 | 0.00 | 34 | 1012.9 |
| 20260502192330 | 17 | 230 | 12.9 | 16.1 | 0.00 | 0.00 | 0.00 | 34 | 1013.2 |
| 20260502191827 | 16 | 275 | 4.8 | 8.0 | 0.00 | 0.00 | 0.00 | 37 | 1013.2 |
| 20260502191325 | 16 | 212 | 16.1 | 17.7 | 0.00 | 0.00 | 0.00 | 36 | 1013.6 |
| 20260502190822 | 16 | 243 | 0.0 | 1.6 | 0.00 | 0.00 | 0.00 | 35 | 1013.2 |
| 20260502190319 | 16 | 249 | 11.3 | 14.5 | 0.00 | 0.00 | 0.00 | 35 | 1013.6 |
| 20260502185815 | 15 | 261 | 0.0 | 0.0 | 0.00 | 0.00 | 0.00 | 36 | 1013.6 |
| 20260502185311 | 15 | 219 | 14.5 | 16.1 | 0.00 | 0.00 | 0.00 | 35 | 1013.6 |
| 20260502184808 | 16 | 231 | 14.5 | 16.1 | 0.00 | 0.00 | 0.00 | 36 | 1013.9 |
| 20260502184303 | 15 | 250 | 17.7 | 20.9 | 0.00 | 0.00 | 0.00 | 36 | 1013.9 |
| 20260502183800 | 15 | 231 | 14.5 | 17.7 | 0.00 | 0.00 | 0.00 | 36 | 1013.9 |
| 20260502183256 | 15 | 239 | 9.7 | 12.9 | 0.00 | 0.00 | 0.00 | 36 | 1013.9 |
| 20260502182752 | 15 | 224 | 9.7 | 11.3 | 0.00 | 0.00 | 0.00 | 36 | 1014.3 |
| 20260502182247 | 15 | 216 | 4.8 | 9.7 | 0.00 | 0.00 | 0.00 | 36 | 1014.3 |
| 20260502181744 | 15 | 309 | 8.0 | 9.7 | 0.00 | 0.00 | 0.00 | 36 | 1014.6 |
| 20260502181243 | 14 | 190 | 11.3 | 12.9 | 0.00 | 0.00 | 0.00 | 37 | 1014.6 |
| 20260502180740 | 15 | 195 | 11.3 | 14.5 | 0.00 | 0.00 | 0.00 | 36 | 1014.6 |
| 20260502180238 | 14 | 221 | 4.8 | 4.8 | 0.00 | 0.00 | 0.00 | 38 | 1014.6 |
| 20260502170202 | 13 | 210 | 6.4 | 9.7 | 0.00 | 0.00 | 0.00 | 38 | 1015.7 |
| 20260502164148 | 12 | 267 | 0.0 | 0.0 | 0.00 | 0.00 | 0.00 | 39 | 1015.7 |
| 20260502163644 | 12 | 229 | 11.3 | 12.9 | 0.00 | 0.00 | 0.00 | 40 | 1016.0 |
| 20260502163141 | 12 | 280 | 1.6 | 3.2 | 0.00 | 0.00 | 0.00 | 40 | 1016.0 |
| 20260502162638 | 12 | 221 | 0.0 | 0.0 | 0.00 | 0.00 | 0.00 | 40 | 1016.4 |
| 20260502162135 | 12 | 210 | 11.3 | 14.5 | 0.00 | 0.00 | 0.00 | 40 | 1016.4 |
| 20260502161632 | 12 | 220 | 6.4 | 9.7 | 0.00 | 0.00 | 0.00 | 40 | 1016.4 |
| 20260502161129 | 12 | 206 | 11.3 | 14.5 | 0.00 | 0.00 | 0.00 | 40 | 1016.4 |
| 20260502160627 | 12 | 309 | 8.0 | 9.7 | 0.00 | 0.00 | 0.00 | 40 | 1016.4 |
| 20260502160126 | 12 | 332 | 0.0 | 3.2 | 0.00 | 0.00 | 0.00 | 42 | 1016.4 |
| 20260502152040 | 11 | 342 | 9.7 | 12.9 | 0.00 | 0.00 | 0.00 | 43 | 1016.7 |
| 20260502151537 | 11 | 281 | 0.0 | 1.6 | 0.00 | 0.00 | 0.00 | 45 | 1016.7 |
| 20260502151034 | 11 | 268 | 4.8 | 11.3 | 0.00 | 0.00 | 0.00 | 45 | 1016.7 |
| 20260502150532 | 11 | 200 | 11.3 | 12.9 | 0.00 | 0.00 | 0.00 | 45 | 1016.7 |
| 20260502130416 | 7 | 292 | 0.0 | 0.0 | 0.00 | 0.00 | 0.00 | 63 | 1017.4 |
| 20260502123359 | 5 | 283 | 0.0 | 0.0 | 0.00 | 0.00 | 0.00 | 69 | 1017.4 |
| 20260502122856 | 4 | 266 | 0.0 | 0.0 | 0.00 | 0.00 | 0.00 | 70 | 1017.4 |
| 20260502122352 | 3 | 276 | 0.0 | 0.0 | 0.00 | 0.00 | 0.00 | 70 | 1017.4 |
| 20260502121850 | 3 | 283 | 0.0 | 0.0 | 0.00 | 0.00 | 0.00 | 71 | 1017.4 |
| 20260502121347 | 3 | 271 | 0.0 | 0.0 | 0.00 | 0.00 | 0.00 | 71 | 1017.4 |
| 20260502120845 | 3 | 267 | 0.0 | 0.0 | 0.00 | 0.00 | 0.00 | 72 | 1017.4 |
| 20260502120341 | 3 | 272 | 0.0 | 0.0 | 0.00 | 0.00 | 0.00 | 72 | 1017.4 |
| 20260502115838 | 3 | 257 | 0.0 | 0.0 | 0.00 | 0.00 | 0.00 | 72 | 1017.4 |
| 20260502115335 | 2 | 278 | 0.0 | 0.0 | 0.00 | 0.00 | 0.00 | 73 | 1017.4 |
| 20260502114832 | 2 | 267 | 0.0 | 0.0 | 0.00 | 0.00 | 0.00 | 73 | 1017.4 |
| 20260502114329 | 2 | 260 | 0.0 | 0.0 | 0.00 | 0.00 | 0.00 | 73 | 1017.4 |
| 20260502113825 | 2 | 275 | 0.0 | 1.6 | 0.00 | 0.00 | 0.00 | 74 | 1017.4 |
| 20260502113323 | 2 | 265 | 0.0 | 0.0 | 0.00 | 0.00 | 0.00 | 73 | 1017.4 |
| 20260502112821 | 2 | 274 | 0.0 | 0.0 | 0.00 | 0.00 | 0.00 | 74 | 1017.4 |
| 20260502112318 | 1 | 267 | 0.0 | 0.0 | 0.00 | 0.00 | 0.00 | 74 | 1017.1 |
| 20260502111816 | 2 | 266 | 0.0 | 0.0 | 0.00 | 0.00 | 0.00 | 73 | 1017.1 |
| 20260502111313 | 2 | 264 | 0.0 | 0.0 | 0.00 | 0.00 | 0.00 | 72 | 1017.4 |
| 20260502110811 | 2 | 261 | 0.0 | 0.0 | 0.00 | 0.00 | 0.00 | 73 | 1017.4 |
| 20260502110309 | 2 | 262 | 0.0 | 0.0 | 0.00 | 0.00 | 0.00 | 73 | 1017.4 |
| 20260502105806 | 2 | 262 | 0.0 | 0.0 | 0.00 | 0.00 | 0.00 | 72 | 1017.4 |
| 20260502105305 | 2 | 264 | 0.0 | 0.0 | 0.00 | 0.00 | 0.00 | 72 | 1017.4 |
| 20260502104800 | 2 | 265 | 0.0 | 0.0 | 0.00 | 0.00 | 0.00 | 72 | 1017.4 |
| 20260502104257 | 2 | 264 | 0.0 | 0.0 | 0.00 | 0.00 | 0.00 | 72 | 1017.4 |
| 20260502103754 | 2 | 267 | 0.0 | 0.0 | 0.00 | 0.00 | 0.00 | 72 | 1017.4 |
| 20260502103252 | 2 | 267 | 0.0 | 0.0 | 0.00 | 0.00 | 0.00 | 72 | 1017.7 |
| 20260502102749 | 2 | 265 | 0.0 | 0.0 | 0.00 | 0.00 | 0.00 | 71 | 1017.4 |
| 20260502102245 | 2 | 257 | 0.0 | 0.0 | 0.00 | 0.00 | 0.00 | 71 | 1017.4 |
| 20260502101744 | 2 | 268 | 0.0 | 0.0 | 0.00 | 0.00 | 0.00 | 71 | 1017.4 |
| 20260502101241 | 2 | 268 | 0.0 | 0.0 | 0.00 | 0.00 | 0.00 | 70 | 1017.4 |
| 20260502100739 | 2 | 264 | 0.0 | 0.0 | 0.00 | 0.00 | 0.00 | 70 | 1017.4 |
| 20260502100238 | 2 | 259 | 0.0 | 0.0 | 0.00 | 0.00 | 0.00 | 69 | 1017.4 |
| 20260502091212 | 3 | 262 | 0.0 | 0.0 | 0.00 | 0.00 | 0.00 | 65 | 1017.1 |
| 20260502090709 | 3 | 265 | 0.0 | 0.0 | 0.00 | 0.00 | 0.00 | 65 | 1017.1 |
| 20260502090206 | 3 | 253 | 0.0 | 0.0 | 0.00 | 0.00 | 0.00 | 64 | 1017.1 |
| 20260502071101 | 4 | 266 | 0.0 | 0.0 | 0.00 | 0.00 | 0.00 | 62 | 1017.7 |
| 20260502070559 | 4 | 265 | 0.0 | 0.0 | 0.00 | 0.00 | 0.00 | 61 | 1017.7 |
| 20260502070057 | 4 | 257 | 0.0 | 0.0 | 0.00 | 0.00 | 0.00 | 61 | 1017.4 |
| 20260502065555 | 4 | 258 | 0.0 | 0.0 | 0.00 | 0.00 | 0.00 | 61 | 1017.4 |
| 20260502065053 | 4 | 267 | 0.0 | 0.0 | 0.00 | 0.00 | 0.00 | 60 | 1017.4 |
| 20260502064551 | 4 | 274 | 0.0 | 0.0 | 0.00 | 0.00 | 0.00 | 60 | 1017.7 |
| 20260502064048 | 4 | 263 | 0.0 | 0.0 | 0.00 | 0.00 | 0.00 | 60 | 1017.4 |
| 20260502063545 | 4 | 266 | 0.0 | 0.0 | 0.00 | 0.00 | 0.00 | 60 | 1017.7 |
| 20260502063043 | 4 | 270 | 0.0 | 0.0 | 0.00 | 0.00 | 0.00 | 60 | 1017.7 |
| 20260502062540 | 4 | 266 | 0.0 | 0.0 | 0.00 | 0.00 | 0.00 | 60 | 1017.7 |
| 20260502062038 | 4 | 265 | 0.0 | 0.0 | 0.00 | 0.00 | 0.00 | 61 | 1017.4 |
| 20260502061536 | 4 | 276 | 0.0 | 0.0 | 0.00 | 0.00 | 0.00 | 61 | 1017.4 |
| 20260502061033 | 4 | 266 | 0.0 | 0.0 | 0.00 | 0.00 | 0.00 | 60 | 1017.7 |
| 20260502060528 | 5 | 264 | 0.0 | 0.0 | 0.00 | 0.00 | 0.00 | 59 | 1017.4 |
| 20260502060025 | 5 | 262 | 0.0 | 0.0 | 0.00 | 0.00 | 0.00 | 59 | 1017.4 |
| 20260502055522 | 5 | 266 | 0.0 | 0.0 | 0.00 | 0.00 | 0.00 | 59 | 1017.7 |
| 20260502055021 | 5 | 263 | 0.0 | 0.0 | 0.00 | 0.00 | 0.00 | 59 | 1017.4 |
| 20260502054519 | 5 | 269 | 0.0 | 0.0 | 0.00 | 0.00 | 0.00 | 58 | 1017.4 |
| 20260502054016 | 5 | 272 | 0.0 | 0.0 | 0.00 | 0.00 | 0.00 | 58 | 1017.7 |
| 20260502053513 | 5 | 266 | 0.0 | 0.0 | 0.00 | 0.00 | 0.00 | 59 | 1017.4 |
| 20260502053011 | 4 | 263 | 0.0 | 0.0 | 0.00 | 0.00 | 0.00 | 61 | 1017.7 |
| 20260502052509 | 4 | 263 | 0.0 | 0.0 | 0.00 | 0.00 | 0.00 | 61 | 1017.7 |
| 20260502052007 | 4 | 262 | 0.0 | 0.0 | 0.00 | 0.00 | 0.00 | 62 | 1017.7 |
| 20260502051505 | 4 | 269 | 0.0 | 0.0 | 0.00 | 0.00 | 0.00 | 62 | 1017.4 |
| 20260502051002 | 5 | 272 | 0.0 | 0.0 | 0.00 | 0.00 | 0.00 | 60 | 1017.7 |
| 20260502050458 | 5 | 272 | 0.0 | 0.0 | 0.00 | 0.00 | 0.00 | 58 | 1017.4 |
| 20260502045955 | 5 | 269 | 0.0 | 0.0 | 0.00 | 0.00 | 0.00 | 56 | 1017.4 |
| 20260502045452 | 5 | 278 | 0.0 | 0.0 | 0.00 | 0.00 | 0.00 | 56 | 1017.4 |
| 20260502044949 | 5 | 268 | 0.0 | 0.0 | 0.00 | 0.00 | 0.00 | 57 | 1017.4 |
| 20260502044444 | 5 | 266 | 0.0 | 0.0 | 0.00 | 0.00 | 0.00 | 57 | 1017.4 |
| 20260502043942 | 5 | 267 | 0.0 | 0.0 | 0.00 | 0.00 | 0.00 | 56 | 1017.4 |
| 20260502043439 | 5 | 266 | 0.0 | 0.0 | 0.00 | 0.00 | 0.00 | 58 | 1017.4 |
| 20260502042939 | 5 | 269 | 0.0 | 0.0 | 0.00 | 0.00 | 0.00 | 57 | 1017.7 |
| 20260502042436 | 5 | 266 | 0.0 | 0.0 | 0.00 | 0.00 | 0.00 | 57 | 1017.4 |
| 20260502041933 | 5 | 269 | 0.0 | 0.0 | 0.00 | 0.00 | 0.00 | 57 | 1017.4 |
| 20260502041431 | 5 | 270 | 0.0 | 0.0 | 0.00 | 0.00 | 0.00 | 58 | 1017.7 |
| 20260502040928 | 5 | 271 | 0.0 | 0.0 | 0.00 | 0.00 | 0.00 | 58 | 1017.4 |
| 20260502040424 | 6 | 266 | 0.0 | 0.0 | 0.00 | 0.00 | 0.00 | 58 | 1017.4 |
| 20260502035920 | 6 | 259 | 0.0 | 0.0 | 0.00 | 0.00 | 0.00 | 57 | 1017.4 |
| 20260502035417 | 5 | 266 | 0.0 | 0.0 | 0.00 | 0.00 | 0.00 | 57 | 1017.1 |
| 20260502034915 | 5 | 266 | 0.0 | 0.0 | 0.00 | 0.00 | 0.00 | 57 | 1017.4 |
| 20260502034414 | 5 | 266 | 0.0 | 0.0 | 0.00 | 0.00 | 0.00 | 57 | 1017.4 |
| 20260502033911 | 5 | 272 | 0.0 | 0.0 | 0.00 | 0.00 | 0.00 | 55 | 1017.4 |
| 20260502033409 | 6 | 272 | 0.0 | 0.0 | 0.00 | 0.00 | 0.00 | 55 | 1017.7 |
| 20260502032905 | 6 | 266 | 0.0 | 0.0 | 0.00 | 0.00 | 0.00 | 55 | 1017.4 |
| 20260502032401 | 6 | 266 | 0.0 | 0.0 | 0.00 | 0.00 | 0.00 | 56 | 1017.7 |
| 20260502031859 | 6 | 263 | 0.0 | 0.0 | 0.00 | 0.00 | 0.00 | 53 | 1017.4 |
| 20260502031357 | 6 | 266 | 0.0 | 0.0 | 0.00 | 0.00 | 0.00 | 52 | 1017.7 |
| 20260502030855 | 6 | 263 | 0.0 | 0.0 | 0.00 | 0.00 | 0.00 | 53 | 1017.4 |
| 20260502030353 | 6 | 264 | 0.0 | 0.0 | 0.00 | 0.00 | 0.00 | 51 | 1017.4 |
| 20260502025850 | 6 | 264 | 0.0 | 0.0 | 0.00 | 0.00 | 0.00 | 51 | 1017.7 |
| 20260502025347 | 6 | 264 | 0.0 | 0.0 | 0.00 | 0.00 | 0.00 | 53 | 1017.4 |
| 20260502024845 | 6 | 272 | 0.0 | 0.0 | 0.00 | 0.00 | 0.00 | 51 | 1017.4 |
| 20260502024343 | 6 | 272 | 0.0 | 0.0 | 0.00 | 0.00 | 0.00 | 51 | 1017.4 |
| 20260502023841 | 6 | 272 | 0.0 | 0.0 | 0.00 | 0.00 | 0.00 | 51 | 1017.7 |
| 20260502023338 | 6 | 272 | 0.0 | 0.0 | 0.00 | 0.00 | 0.00 | 50 | 1017.1 |
| 20260502022836 | 6 | 272 | 0.0 | 0.0 | 0.00 | 0.00 | 0.00 | 52 | 1017.4 |
| 20260502022332 | 6 | 272 | 0.0 | 0.0 | 0.00 | 0.00 | 0.00 | 50 | 1017.4 |
| 20260502021829 | 6 | 272 | 0.0 | 0.0 | 0.00 | 0.00 | 0.00 | 51 | 1017.4 |
| 20260502021326 | 6 | 272 | 0.0 | 0.0 | 0.00 | 0.00 | 0.00 | 52 | 1017.1 |
| 20260502020824 | 6 | 272 | 0.0 | 0.0 | 0.00 | 0.00 | 0.00 | 50 | 1017.1 |
| 20260502020321 | 6 | 272 | 0.0 | 0.0 | 0.00 | 0.00 | 0.00 | 50 | 1017.4 |
| 20260502015818 | 7 | 272 | 0.0 | 0.0 | 0.00 | 0.00 | 0.00 | 52 | 1017.1 |
| 20260502015315 | 7 | 272 | 0.0 | 0.0 | 0.00 | 0.00 | 0.00 | 51 | 1017.1 |
| 20260502014812 | 7 | 272 | 0.0 | 0.0 | 0.00 | 0.00 | 0.00 | 50 | 1017.1 |
| 20260502014309 | 7 | 272 | 0.0 | 0.0 | 0.00 | 0.00 | 0.00 | 49 | 1016.7 |
| 20260502013805 | 7 | 272 | 0.0 | 0.0 | 0.00 | 0.00 | 0.00 | 48 | 1017.1 |
| 20260502013301 | 8 | 272 | 0.0 | 0.0 | 0.00 | 0.00 | 0.00 | 47 | 1017.1 |
| 20260502012757 | 8 | 272 | 0.0 | 0.0 | 0.00 | 0.00 | 0.00 | 43 | 1017.1 |
| 20260502012255 | 8 | 282 | 0.0 | 0.0 | 0.00 | 0.00 | 0.00 | 45 | 1017.1 |
| 20260502011752 | 8 | 282 | 0.0 | 0.0 | 0.00 | 0.00 | 0.00 | 43 | 1016.7 |
| 20260502011248 | 8 | 282 | 0.0 | 0.0 | 0.00 | 0.00 | 0.00 | 41 | 1016.7 |
| 20260502010746 | 9 | 282 | 0.0 | 0.0 | 0.00 | 0.00 | 0.00 | 40 | 1016.7 |
| 20260502010242 | 9 | 294 | 0.0 | 0.0 | 0.00 | 0.00 | 0.00 | 39 | 1016.7 |
| 20260502005739 | 10 | 302 | 0.0 | 0.0 | 0.00 | 0.00 | 0.00 | 38 | 1016.7 |
| 20260502005237 | 10 | 280 | 1.6 | 8.0 | 0.00 | 0.00 | 0.00 | 38 | 1016.7 |
| 20260502004734 | 10 | 286 | 0.0 | 0.0 | 0.00 | 0.00 | 0.00 | 38 | 1016.7 |
| 20260502004230 | 10 | 279 | 0.0 | 0.0 | 0.00 | 0.00 | 0.00 | 37 | 1016.7 |
| 20260502003728 | 10 | 305 | 0.0 | 0.0 | 0.00 | 0.00 | 0.00 | 38 | 1016.7 |
| 20260502003225 | 10 | 286 | 0.0 | 0.0 | 0.00 | 0.00 | 0.00 | 38 | 1016.7 |
| 20260502002720 | 10 | 295 | 4.8 | 8.0 | 0.00 | 0.00 | 0.00 | 36 | 1016.7 |
| 20260502002219 | 11 | 282 | 0.0 | 0.0 | 0.00 | 0.00 | 0.00 | 35 | 1016.7 |
| 20260502001715 | 10 | 302 | 0.0 | 0.0 | 0.00 | 0.00 | 0.00 | 35 | 1016.7 |
| 20260502001214 | 10 | 275 | 0.0 | 0.0 | 0.00 | 0.00 | 0.00 | 35 | 1016.7 |
| 20260502000711 | 10 | 337 | 3.2 | 3.2 | 0.00 | 0.00 | 0.00 | 35 | 1016.7 |
| 20260502000211 | 11 | 341 | 0.0 | 0.0 | 0.00 | 0.00 | 0.00 | 35 | 1017.1 |
| 20260501235704 | 10 | 313 | 0.0 | 0.0 | 0.00 | 0.00 | 0.00 | 36 | 1016.7 |
| 20260501235200 | 10 | 327 | 0.0 | 0.0 | 0.00 | 0.00 | 0.00 | 36 | 1016.7 |
| 20260501234656 | 11 | 338 | 4.8 | 8.0 | 0.00 | 0.00 | 0.00 | 35 | 1016.7 |
| 20260501234153 | 11 | 289 | 0.0 | 0.0 | 0.00 | 0.00 | 0.00 | 36 | 1016.7 |
| 20260501233651 | 11 | 281 | 6.4 | 12.9 | 0.00 | 0.00 | 0.00 | 35 | 1016.7 |
| 20260501233148 | 10 | 277 | 0.0 | 0.0 | 0.00 | 0.00 | 0.00 | 37 | 1016.7 |
| 20260501232644 | 10 | 325 | 3.2 | 4.8 | 0.00 | 0.00 | 0.00 | 36 | 1016.7 |
| 20260501232142 | 11 | 350 | 1.6 | 4.8 | 0.00 | 0.00 | 0.00 | 36 | 1016.7 |
| 20260501231639 | 11 | 336 | 8.0 | 11.3 | 0.00 | 0.00 | 0.00 | 35 | 1016.7 |
| 20260501231137 | 11 | 282 | 0.0 | 0.0 | 0.00 | 0.00 | 0.00 | 35 | 1017.1 |
| 20260501230635 | 11 | 288 | 3.2 | 8.0 | 0.00 | 0.00 | 0.00 | 34 | 1016.7 |
| 20260501230133 | 11 | 287 | 0.0 | 0.0 | 0.00 | 0.00 | 0.00 | 35 | 1017.1 |
| 20260501225631 | 11 | 294 | 1.6 | 3.2 | 0.00 | 0.00 | 0.00 | 36 | 1016.7 |
| 20260501225127 | 10 | 292 | 0.0 | 0.0 | 0.00 | 0.00 | 0.00 | 38 | 1017.1 |
| 20260501224624 | 10 | 284 | 6.4 | 9.7 | 0.00 | 0.00 | 0.00 | 38 | 1016.7 |
| 20260501224121 | 11 | 293 | 0.0 | 3.2 | 0.00 | 0.00 | 0.00 | 37 | 1016.7 |
| 20260501223617 | 10 | 321 | 4.8 | 4.8 | 0.00 | 0.00 | 0.00 | 35 | 1016.7 |
| 20260501223114 | 10 | 262 | 0.0 | 0.0 | 0.00 | 0.00 | 0.00 | 36 | 1016.7 |
| 20260501222610 | 10 | 296 | 0.0 | 0.0 | 0.00 | 0.00 | 0.00 | 37 | 1016.7 |
| 20260501222107 | 10 | 278 | 0.0 | 0.0 | 0.00 | 0.00 | 0.00 | 38 | 1017.1 |
| 20260501221604 | 10 | 327 | 0.0 | 0.0 | 0.00 | 0.00 | 0.00 | 39 | 1017.1 |
| 20260501221101 | 10 | 275 | 0.0 | 0.0 | 0.00 | 0.00 | 0.00 | 39 | 1017.1 |
| 20260501220559 | 10 | 0 | 0.0 | 0.0 | 0.00 | 0.00 | 0.00 | 38 | 1017.1 |
| 20260501220055 | 10 | 333 | 0.0 | 0.0 | 0.00 | 0.00 | 0.00 | 37 | 1017.1 |
| 20260501215552 | 10 | 286 | 0.0 | 0.0 | 0.00 | 0.00 | 0.00 | 36 | 1017.1 |
| 20260501215047 | 10 | 336 | 0.0 | 1.6 | 0.00 | 0.00 | 0.00 | 36 | 1016.7 |
| 20260501214543 | 10 | 305 | 0.0 | 0.0 | 0.00 | 0.00 | 0.00 | 38 | 1017.1 |
| 20260501214039 | 10 | 316 | 0.0 | 1.6 | 0.00 | 0.00 | 0.00 | 38 | 1017.1 |
| 20260501213536 | 10 | 295 | 0.0 | 0.0 | 0.00 | 0.00 | 0.00 | 39 | 1017.1 |
| 20260501213032 | 10 | 294 | 0.0 | 0.0 | 0.00 | 0.00 | 0.00 | 38 | 1017.1 |
| 20260501212528 | 10 | 310 | 0.0 | 1.6 | 0.00 | 0.00 | 0.00 | 38 | 1017.1 |
| 20260501212026 | 9 | 13 | 9.7 | 14.5 | 0.00 | 0.00 | 0.00 | 38 | 1017.1 |
| 20260501211522 | 9 | 288 | 0.0 | 0.0 | 0.00 | 0.00 | 0.00 | 41 | 1017.1 |
| 20260501211020 | 9 | 323 | 0.0 | 0.0 | 0.00 | 0.00 | 0.00 | 40 | 1017.1 |
| 20260501210516 | 10 | 327 | 6.4 | 8.0 | 0.00 | 0.00 | 0.00 | 40 | 1017.1 |
| 20260501210013 | 10 | 325 | 8.0 | 11.3 | 0.00 | 0.00 | 0.00 | 38 | 1017.1 |
| 20260501205510 | 11 | 337 | 1.6 | 8.0 | 0.00 | 0.00 | 0.00 | 38 | 1017.1 |
| 20260501205008 | 10 | 300 | 3.2 | 3.2 | 0.00 | 0.00 | 0.00 | 37 | 1017.1 |